Location: Newark
(25.0000°N, 73.5000°E)
Time: 02:34:16
(UTC+00:00)

Transit 2A Rocket - Pass Details

Date: 10 August 2021
Orbit: 586 x 917 km, 66.7° (Epoch: 24 September)

Event Time Altitude Azimuth Distance (km) Brightness Sun altitude
Rises 16:17:19 0° 340° (NNW) 3,411 9.2 -31.5°
Reaches altitude 10° 16:19:45 10° 342° (NNW) 2,511 8.3 -31.9°
Enters shadow 16:23:58 48° 0° (N) 1,155 6.0 -32.6°
